Regional Weather Roundup
Issued by NWS Cleveland, OH

Home | Current Version | Previous Version | Graphics & Text | Print | Product List | Glossary On
Versions: 1 2 3 4 5 6 7 8 9 10 11 12 13 14 15 16 17 18 19 20 21 22 23 24 25 26 27 28 29 30 31 32 33 34 35 36 37 38 39 40 41 42 43 44 45 46 47 48 49 50
000
ASUS41 KCLE 241200
RWRCLE
OHIO REGIONAL WEATHER ROUNDUP
NATIONAL WEATHER SERVICE WILMINGTON, OH
700 AM EST MON NOV 24 2014

NOTE: "FAIR" INDICATES FEW OR NO CLOUDS BELOW 12,000 FEET WITH NO
SIGNIFICANT WEATHER AND/OR OBSTRUCTIONS TO VISIBILITY.

OHZ001>008-015>018-024>027-034-035-043-044-241300-
   NORTHWEST OHIO

CITY           SKY/WX    TMP DP  RH WIND       PRES   REMARKS
DEFIANCE       LGT RAIN  56  53  90 S15G21    29.17S
FINDLAY        CLOUDY    58  53  84 S25G33    29.21F
TOLEDO EXPRESS MOCLDY    56  52  86 S13G26    29.17S
TOLEDO METCALF PTCLDY    57  52  83 S16       29.19S
LIMA           CLOUDY    59  54  83 S16       29.22F
$$

OHZ009>014-019>023-028>033-038-089-241300-
   NORTHEAST OHIO

CITY           SKY/WX    TMP DP  RH WIND       PRES   REMARKS
CLE-HOPKINS    MOCLDY    59  52  77 S18G28    29.28F
CLE-LAKEFRONT  PTCLDY    61  52  72 S22G32    29.25F
CUY CO. ARPT   DRIZZLE   59  55  88 SW21G35   29.28
LORAIN-ELYRIA    N/A     59  52  77 SW24G33   29.27R
ASHTABULA      CLOUDY    59  53  80 S15G28    29.31S
AKRON-CANTON   CLOUDY    57  53  86 S20G25    29.35R
WOOSTER        NOT AVBL
MANSFIELD      CLOUDY    58  54  86 S22G40    29.29F
YOUNGSTOWN     CLOUDY    58  52  80 S13G21    29.36R
$$

OHZ042-051>053-060>062-070>072-077>081-241300-
  SOUTHWEST OHIO

CITY           SKY/WX    TMP DP  RH WIND       PRES   REMARKS
CINC-COVINGTON MOCLDY    60  52  74 S18G30    29.31F
CINC-LUNKEN    MOCLDY    60  54  80 S22G30    29.32F
HAMILTON       MOCLDY    62  54  74 S15G25    29.29F
DAYTON         NOT AVBL
WRIGHT-PAT AFB NOT AVBL
DAYTON GENERAL PTCLDY    60  54  80 S20G39    29.28F
WILMINGTON     MOCLDY    58  53  84 S20G32    29.33S
$$

OHZ036-037-039>041-045>050-054>059-063>069-073>076-082>088-241300-
  CENTRAL AND SOUTHEAST OHIO

CITY           SKY/WX    TMP DP  RH WIND       PRES   REMARKS
COLUMBUS       MOCLDY    59  53  80 S14       29.34F
OSU AIRPORT    MOCLDY    58  54  86 S18G25    29.31F
BOLTON FIELD   NOT AVBL
RICKENBACK AFB NOT AVBL
NEWARK         CLOUDY    60  52  74 S15G24    29.36S
MARION         CLOUDY    58  53  84 S25G33    29.29S
LANCASTER      CLOUDY    61  53  75 S14G23    29.37F
ZANESVILLE     CLOUDY    58  53  84 S14       29.40S
NEW PHILLY     CLOUDY    61  54  77 S13G26    29.39F
$$



USA.gov is the U.S. government's official web portal to all federal, state and local government web resources and services.